Weather History for Hobart, OK

Change the Weather History Date:

Thursday, October 4, 2012

  Actual Average Record
Temperature  
Mean Temperature 62 °F -  
Max Temperature 68 °F 76 °F 93 °F (2007)
Min Temperature 57 °F 53 °F 39 °F (2014)
Degree Days  
Heating Degree Days 2    
Growing Degree Days 12 (Base 50)    
Moisture  
Dew Point 49 °F    
Average Humidity 63    
Maximum Humidity 90    
Minimum Humidity 54    
Precipitation  
Precipitation 0.00 in - - ()
Sea Level Pressure  
Sea Level Pressure 30.10 in    
Wind  
Wind Speed 16 mph (NE)    
Max Wind Speed 25 mph    
Max Gust Speed 33 mph    
Visibility 10 miles    
Events      
Averages and records for this station are not official NWS values.
T = Trace of Precipitation, MM = Missing Value Source: NWS Daily Summary

Daily Weather History Graph

Daily Weather History Graph

Search for Another Location

Airport:

Trip Planner

Search our weather history database for the weather conditions in past years. The results will help you decide how hot, cold, wet, or windy it might be!

Date:

Astronomy

Oct. 04, 2012 Rise Set
Actual Time 7:33 AM CDT 7:15 PM CDT
Civil Twilight 7:08 AM CDT 7:40 PM CDT
Nautical Twilight 6:39 AM CDT 8:09 PM CDT
Astronomical Twilight 6:09 AM CDT 8:39 PM CDT
Moon 10:02 PM CDT (10/4) 11:41 AM CDT (10/4)
Length of Visible Light 12h 32m
Length of Day
11h 41m
Waning Gibbous, 82% of the Moon is Illuminated
Oct 4
Waning Gibbous
Oct 8
Last Quarter
Oct 15
New
Oct 21
First Quarter
Oct 29
Full

Hourly Weather History & Observations

Time (CDT) Temp. Dew Point Humidity Pressure Visibility Wind Dir Wind Speed Gust Speed Precip Events Conditions
12:53 AM 68.0 °F 53.1 °F 59% 29.91 in 10.0 mi SSE 20.7 mph - N/A   Clear
1:53 AM 66.9 °F 53.1 °F 61% 29.92 in 10.0 mi South 17.3 mph - N/A   Clear
2:53 AM 66.9 °F 54.0 °F 63% 29.92 in 10.0 mi South 18.4 mph 26.5 mph N/A   Clear
3:53 AM 66.0 °F 54.0 °F 65% 29.91 in 10.0 mi South 17.3 mph - N/A   Clear
4:53 AM 66.0 °F 54.0 °F 65% 29.93 in 10.0 mi South 17.3 mph - N/A   Clear
5:53 AM 64.0 °F 55.0 °F 73% 29.99 in 10.0 mi South 8.1 mph - N/A   Clear
6:53 AM 60.1 °F 55.0 °F 83% 30.05 in 10.0 mi NNW 3.5 mph - N/A   Clear
7:53 AM 57.9 °F 55.0 °F 90% 30.06 in 10.0 mi East 5.8 mph - N/A   Clear
8:53 AM 64.9 °F 57.0 °F 75% 30.09 in 10.0 mi NNE 6.9 mph - N/A   Clear
9:18 AM 64.4 °F 57.2 °F 77% 30.14 in 10.0 mi NNE 10.4 mph - N/A   Mostly Cloudy
9:53 AM 62.1 °F 53.1 °F 72% 30.13 in 10.0 mi North 21.9 mph 29.9 mph N/A   Overcast
10:53 AM 57.0 °F 44.1 °F 62% 30.16 in 10.0 mi NNE 25.3 mph 33.4 mph N/A   Overcast
11:53 AM 57.0 °F 43.0 °F 59% 30.18 in 10.0 mi NNE 21.9 mph 32.2 mph N/A   Overcast
12:53 PM 59.0 °F 44.1 °F 58% 30.19 in 10.0 mi NNE 20.7 mph 25.3 mph N/A   Overcast
1:53 PM 57.9 °F 44.1 °F 60% 30.18 in 10.0 mi NNE 17.3 mph - N/A   Overcast
2:53 PM 60.1 °F 45.0 °F 57% 30.17 in 10.0 mi NNE 19.6 mph - N/A   Overcast
3:53 PM 61.0 °F 45.0 °F 56% 30.15 in 10.0 mi NE 17.3 mph - N/A   Overcast
4:53 PM 60.8 °F 44.6 °F 55% 30.18 in 10.0 mi NE 18.4 mph - N/A   Overcast
5:53 PM 61.0 °F 44.1 °F 54% 30.15 in 10.0 mi NNE 13.8 mph - N/A   Overcast
6:53 PM 61.0 °F 44.1 °F 54% 30.15 in 10.0 mi NE 12.7 mph - N/A   Overcast
7:53 PM 60.1 °F 44.1 °F 55% 30.15 in 10.0 mi NE 10.4 mph - N/A   Overcast
8:04 PM 60.8 °F 44.6 °F 55% 30.17 in 10.0 mi NE 11.5 mph - N/A   Overcast
8:53 PM 60.1 °F 45.0 °F 57% 30.15 in 10.0 mi NE 8.1 mph - N/A   Overcast
9:14 PM 60.8 °F 44.6 °F 55% 30.18 in 10.0 mi NE 9.2 mph - N/A   Overcast
9:53 PM 59.0 °F 46.0 °F 62% 30.17 in 10.0 mi NE 9.2 mph - N/A   Overcast
10:53 PM 59.0 °F 45.0 °F 60% 30.17 in 10.0 mi NE 9.2 mph - N/A   Overcast
11:53 PM 57.9 °F 44.1 °F 60% 30.17 in 10.0 mi NE 13.8 mph - N/A   Overcast